GW7103 Weather Reports


Display with metric or nautical units.
time (UTC)temp
F
wind
direction
speed
MPH
gust
MPH
rain 1hr
in
rain 24hr
in
rain mn
in
humidity
%
barometer
mb
20260504201522 50 323 8.0 14.0 0.00 0.00 0.00 74 1005.4
20260504200025 50 322 7.0 12.0 0.00 0.01 0.00 74 1005.4
20260504194537 50 317 10.0 15.0 0.00 0.01 0.00 73 1005.4
20260504193031 50 295 8.0 10.0 0.00 0.01 0.00 75 1005.4
20260504191516 48 293 5.0 9.0 0.00 0.01 0.00 79 1005.4
20260504190029 46 297 2.0 4.0 0.00 0.02 0.00 81 1005.5
20260504184533 47 278 3.0 5.0 0.00 0.03 0.00 80 1005.4
20260504183027 46 275 2.0 3.0 0.00 0.03 0.00 80 1005.4
20260504181516 46 275 2.0 4.0 0.00 0.04 0.00 79 1005.5
20260504180022 46 273 2.0 5.0 0.00 0.06 0.00 81 1005.4
20260504174504 46 278 3.0 4.0 0.00 0.06 0.00 81 1005.6
20260504173014 46 314 3.0 5.0 0.00 0.06 0.00 82 1005.6
20260504171516 46 316 4.0 7.0 0.00 0.06 0.00 81 1005.8
20260504081529 39 321 4.0 5.0 0.00 0.46 0.00 62 1005.9
20260504050012 40 328 3.0 6.0 0.00 0.52 0.00 66 1005.4
20260504044518 42 339 6.0 10.0 0.00 0.52 0.00 65 1005.2
20260504043022 42 336 6.0 11.0 0.00 0.52 0.00 65 1005.1
20260504041504 42 345 3.0 12.0 0.00 0.52 0.00 63 1005.0
20260504040010 42 352 2.0 11.0 0.00 0.52 0.00 63 1005.0
20260504034528 42 345 4.0 12.0 0.00 0.52 0.52 59 1004.8
20260504033023 42 338 4.0 11.0 0.00 0.52 0.52 64 1004.7
20260504031526 43 355 6.0 15.0 0.00 0.52 0.52 55 1004.8
20260504030009 43 304 6.0 13.0 0.00 0.52 0.52 56 1004.7
20260504024510 43 352 9.0 16.0 0.00 0.52 0.52 56 1004.7
20260504023017 43 338 10.0 16.0 0.00 0.54 0.52 55 1004.5
20260504021524 43 347 12.0 17.0 0.00 0.55 0.52 56 1004.3
20260504020025 43 326 10.0 17.0 0.00 0.55 0.52 55 1004.2
20260504014515 43 330 12.0 17.0 0.00 0.55 0.52 55 1004.2
20260504013012 43 338 9.0 16.0 0.00 0.56 0.52 56 1004.2
20260504011518 43 347 10.0 15.0 0.00 0.57 0.52 58 1003.9
20260504010024 44 328 9.0 15.0 0.00 0.58 0.52 59 1003.8
20260504004529 44 326 9.0 12.0 0.00 0.60 0.52 60 1003.7
20260504003009 44 354 12.0 17.0 0.00 0.61 0.52 60 1003.5
20260504001519 45 340 11.0 13.0 0.00 0.61 0.52 60 1003.4
20260504000022 45 349 11.0 16.0 0.00 0.61 0.52 60 1003.0
20260503234528 45 342 11.0 16.0 0.00 0.61 0.52 66 1002.7
20260503233025 43 354 1.0 3.0 0.00 0.61 0.52 86 1002.7
20260503231516 43 354 0.0 2.0 0.00 0.61 0.52 91 1002.4
20260503230018 43 354 0.0 0.0 0.00 0.61 0.52 89 1002.4
20260503224520 44 75 0.0 2.0 0.00 0.61 0.52 83 1002.4
20260503223026 45 7 1.0 3.0 0.00 0.61 0.52 82 1002.5
20260503221514 45 2 0.0 2.0 0.00 0.61 0.52 86 1002.4
20260503220018 45 113 0.0 4.0 0.00 0.61 0.52 86 1002.3
20260503214521 45 64 1.0 5.0 0.00 0.61 0.52 81 1002.6
20260503213041 45 82 0.0 4.0 0.00 0.61 0.52 84 1002.7
20260503211529 45 61 1.0 5.0 0.00 0.61 0.52 85 1002.9
20260503210017 44 323 0.0 4.0 0.01 0.62 0.52 87 1002.8
20260503204518 44 48 1.0 4.0 0.01 0.62 0.52 87 1002.9
20260503203025 43 346 1.0 3.0 0.01 0.63 0.52 88 1003.2